AA9VI-10 Weather Reports


Display with metric or nautical units.
time (UTC)temp
F
wind
direction
speed
MPH
gust
MPH
rain 1hr
in
rain 24hr
in
rain mn
in
humidity
%
barometer
mb
20260831063016 74 0.0 1.0 0.00 0.15 0.00 81 1014.7
20260831062016 74 0.0 2.0 0.00 0.15 0.00 81 1014.6
20260831061016 74 135 2.0 3.0 0.00 0.15 0.00 81 1014.4
20260831060016 74 135 2.0 3.0 0.00 0.15 0.00 82 1014.7
20260831055016 73 135 2.0 3.0 0.00 0.15 0.00 86 1014.7
20260831054016 73 135 1.0 3.0 0.00 0.15 0.00 88 1014.7
20260831053016 73 135 1.0 2.0 0.00 0.15 0.00 89 1014.6
20260831052016 73 0.0 0.0 0.00 0.15 0.00 89 1014.7
20260831051016 73 0.0 0.0 0.00 0.15 0.00 89 1014.7
20260831050016 73 0.0 1.0 0.00 0.15 0.15 89 1014.5
20260831045017 73 0.0 1.0 0.00 0.15 0.15 90 1014.6
20260831044017 73 0.0 0.0 0.00 0.15 0.15 89 1014.7
20260831043017 73 0.0 0.0 0.00 0.15 0.15 89 1014.9
20260831042017 73 0.0 0.0 0.01 0.15 0.15 89 1014.8
20260831041017 73 0.0 1.0 0.02 0.15 0.15 89 1014.5
20260831040017 73 203 1.0 4.0 0.03 0.15 0.15 90 1014.1
20260831035017 73 203 1.0 3.0 0.03 0.15 0.15 90 1014.1
20260831034017 73 158 1.0 3.0 0.03 0.15 0.15 90 1014.5
20260831033017 73 203 1.0 4.0 0.03 0.15 0.15 90 1014.6
20260831032017 73 203 1.0 5.0 0.02 0.14 0.14 90 1015.0
20260831031017 73 203 1.0 6.0 0.01 0.13 0.13 90 1015.2
20260831030017 73 225 1.0 2.0 0.00 0.12 0.12 89 1015.7
20260831025017 73 203 1.0 2.0 0.02 0.12 0.12 89 1015.7
20260831024017 73 203 2.0 3.0 0.02 0.12 0.12 89 1015.7
20260831023017 73 225 1.0 3.0 0.02 0.12 0.12 89 1015.7
20260831022017 73 0.0 2.0 0.02 0.12 0.12 88 1015.6
20260831021017 73 0.0 2.0 0.02 0.12 0.12 88 1015.7
20260831020017 73 0.0 2.0 0.02 0.12 0.12 87 1015.4
20260831015017 73 203 2.0 4.0 0.00 0.10 0.10 87 1015.7
20260831014017 73 0.0 0.0 0.00 0.10 0.10 87 1015.5
20260831013017 73 0.0 0.0 0.00 0.10 0.10 87 1015.4
20260831012017 73 0.0 1.0 0.00 0.10 0.10 87 1015.3
20260831011017 74 0.0 1.0 0.00 0.10 0.10 87 1015.2
20260831010017 74 0.0 1.0 0.00 0.10 0.10 86 1014.9
20260831005017 74 0.0 1.0 0.01 0.10 0.10 86 1015.1
20260831004017 74 158 1.0 3.0 0.01 0.10 0.10 86 1015.2
20260831003017 74 180 1.0 2.0 0.01 0.10 0.10 86 1015.1
20260831002017 73 180 2.0 7.0 0.01 0.10 0.10 86 1015.1
20260831001017 73 180 2.0 5.0 0.01 0.10 0.10 86 1014.7
20260831000017 73 203 1.0 3.0 0.02 0.10 0.10 87 1015.1
20260830235017 73 158 1.0 2.0 0.01 0.09 0.09 87 1015.1
20260830234017 73 113 1.0 3.0 0.01 0.09 0.09 87 1014.8
20260830233017 73 0.0 1.0 0.01 0.09 0.09 86 1015.2
20260830232017 74 158 1.0 3.0 0.01 0.09 0.09 86 1015.4
20260830231017 74 158 1.0 4.0 0.01 0.09 0.09 85 1015.3
20260830230017 74 180 2.0 5.0 0.00 0.08 0.08 85 1015.4
20260830225017 74 203 1.0 3.0 0.00 0.08 0.08 84 1015.8
20260830224017 75 203 1.0 3.0 0.00 0.09 0.08 83 1015.9
20260830223016 75 203 1.0 3.0 0.00 0.09 0.08 81 1015.8
20260830222017 75 203 2.0 6.0 0.00 0.09 0.08 79 1015.6
20260830221017 76 0.0 3.0 0.00 0.09 0.08 78 1015.7
20260830220017 76 203 1.0 3.0 0.00 0.09 0.08 77 1015.7
20260830215017 76 203 2.0 6.0 0.00 0.09 0.08 76 1015.6
20260830214017 76 180 2.0 5.0 0.00 0.09 0.08 76 1015.7
20260830213017 77 225 3.0 6.0 0.00 0.09 0.08 74 1015.8
20260830212017 77 180 2.0 6.0 0.00 0.09 0.08 74 1015.8
20260830211017 77 225 2.0 6.0 0.00 0.09 0.08 73 1016.0
20260830210017 77 203 3.0 7.0 0.00 0.09 0.08 73 1015.9
20260830205017 78 203 2.0 4.0 0.00 0.09 0.08 72 1015.9
20260830204017 78 203 3.0 7.0 0.00 0.09 0.08 71 1016.0
20260830203017 79 203 3.0 8.0 0.00 0.09 0.08 70 1016.1
20260830202017 80 203 3.0 9.0 0.00 0.09 0.08 69 1016.1
20260830201017 80 203 4.0 12.0 0.00 0.09 0.08 68 1015.9
20260830200017 80 203 3.0 7.0 0.00 0.09 0.08 69 1015.8
20260830195017 80 203 4.0 10.0 0.00 0.09 0.08 68 1015.8
20260830194017 80 180 3.0 7.0 0.00 0.09 0.08 67 1015.8
20260830193017 80 225 4.0 8.0 0.00 0.09 0.08 66 1015.7
20260830192017 80 225 3.0 11.0 0.00 0.09 0.08 65 1015.6
20260830191017 80 203 3.0 7.0 0.00 0.09 0.08 65 1015.7
20260830190017 81 203 3.0 9.0 0.00 0.09 0.08 64 1015.9
20260830185017 81 203 1.0 4.0 0.00 0.09 0.08 65 1016.1
20260830184017 81 180 1.0 2.0 0.00 0.09 0.08 63 1016.1
20260830183017 82 203 3.0 11.0 0.00 0.09 0.08 61 1015.6
20260830182017 82 203 4.0 8.0 0.00 0.09 0.08 60 1015.1
20260830181017 83 225 4.0 9.0 0.00 0.09 0.08 60 1014.7
20260830180017 82 180 4.0 11.0 0.00 0.09 0.08 61 1014.6
20260830175017 82 180 4.0 9.0 0.00 0.09 0.08 60 1014.9
20260830174017 82 180 4.0 11.0 0.00 0.09 0.08 60 1014.9
20260830173017 82 203 4.0 11.0 0.00 0.09 0.08 61 1015.1
20260830172017 81 180 4.0 11.0 0.00 0.09 0.08 61 1015.0
20260830171016 80 203 7.0 17.0 0.00 0.09 0.08 62 1015.1
20260830170017 80 180 4.0 10.0 0.00 0.09 0.08 65 1015.3
20260830165017 79 180 5.0 10.0 0.00 0.09 0.08 65 1015.3
20260830164017 79 203 6.0 13.0 0.00 0.09 0.08 64 1015.1
20260830163017 79 180 3.0 6.0 0.00 0.09 0.08 65 1015.1
20260830162017 79 180 4.0 12.0 0.00 0.09 0.08 67 1015.0
20260830161017 79 180 3.0 5.0 0.00 0.09 0.08 69 1015.0
20260830160017 78 203 5.0 12.0 0.00 0.09 0.08 68 1014.8
20260830155017 78 225 5.0 12.0 0.00 0.09 0.08 70 1015.0
20260830154017 77 180 4.0 8.0 0.00 0.09 0.08 71 1015.0
20260830153017 76 203 3.0 14.0 0.00 0.09 0.08 73 1014.9
20260830152018 75 203 3.0 9.0 0.00 0.09 0.08 76 1014.9
20260830151017 75 180 5.0 14.0 0.00 0.09 0.08 76 1015.0
20260830150017 74 158 3.0 6.0 0.00 0.09 0.08 78 1014.8
20260830145017 73 225 4.0 9.0 0.00 0.09 0.08 80 1014.7
20260830144016 72 180 3.0 6.0 0.00 0.09 0.08 82 1015.0
20260830143017 70 180 4.0 11.0 0.00 0.09 0.08 84 1014.9
20260830142017 70 203 3.0 8.0 0.00 0.09 0.08 85 1015.2
20260830141017 69 203 4.0 9.0 0.00 0.09 0.08 86 1015.3
20260830140017 69 203 3.0 12.0 0.01 0.09 0.08 86 1015.1
20260830135017 69 203 3.0 10.0 0.01 0.09 0.08 87 1015.2
20260830134016 68 203 4.0 11.0 0.03 0.09 0.08 87 1015.1
20260830133017 68 180 4.0 12.0 0.04 0.09 0.08 87 1014.9
20260830132017 68 203 4.0 11.0 0.05 0.09 0.08 87 1015.3
20260830131017 68 180 3.0 8.0 0.06 0.09 0.08 87 1015.5
20260830130017 68 180 2.0 7.0 0.06 0.08 0.07 87 1015.9
20260830125016 68 180 3.0 8.0 0.07 0.08 0.07 86 1016.2
20260830124017 68 203 1.0 4.0 0.05 0.06 0.05 85 1016.4
20260830123017 68 203 4.0 10.0 0.04 0.05 0.04 84 1016.1
20260830122017 69 203 3.0 10.0 0.03 0.04 0.03 83 1016.3
20260830121017 69 0 4.0 9.0 0.02 0.03 0.02 81 1016.5
20260830120017 70 0 3.0 6.0 0.01 0.02 0.01 78 1016.5
20260830115016 71 203 3.0 7.0 0.00 0.01 0.00 75 1016.4
20260830114017 72 248 2.0 5.0 0.00 0.01 0.00 73 1015.9
20260830113017 72 225 3.0 7.0 0.00 0.01 0.00 72 1015.5
20260830112016 72 180 3.0 9.0 0.00 0.01 0.00 72 1015.3
20260830111017 72 203 3.0 9.0 0.00 0.01 0.00 72 1015.2
20260830110017 72 203 3.0 6.0 0.00 0.01 0.00 71 1015.4
20260830105017 72 203 3.0 10.0 0.00 0.01 0.00 70 1015.5
20260830104017 72 225 3.0 6.0 0.00 0.01 0.00 70 1015.3
20260830103017 72 225 4.0 10.0 0.00 0.01 0.00 70 1015.1
20260830102017 72 225 3.0 5.0 0.00 0.01 0.00 70 1015.1
20260830101016 72 180 2.0 9.0 0.00 0.01 0.00 69 1015.0
20260830100017 72 203 3.0 6.0 0.00 0.01 0.00 69 1015.1
20260830095017 72 180 3.0 7.0 0.00 0.01 0.00 69 1015.0
20260830094016 72 180 4.0 8.0 0.00 0.01 0.00 70 1014.9
20260830093017 72 203 1.0 4.0 0.00 0.01 0.00 70 1015.0
20260830092017 71 180 2.0 4.0 0.00 0.01 0.00 70 1014.9
20260830091017 71 0 2.0 5.0 0.00 0.01 0.00 71 1014.9
20260830090017 71 0 2.0 8.0 0.00 0.01 0.00 72 1014.9
20260830085017 72 158 1.0 3.0 0.00 0.01 0.00 70 1014.9
20260830084017 72 180 1.0 5.0 0.00 0.01 0.00 69 1015.1
20260830083016 72 158 2.0 7.0 0.00 0.01 0.00 67 1015.2
20260830082016 73 203 2.0 5.0 0.00 0.01 0.00 66 1015.4
20260830081016 73 203 2.0 6.0 0.00 0.01 0.00 65 1015.5
20260830080016 73 203 3.0 5.0 0.00 0.01 0.00 65 1015.6
20260830075017 73 203 3.0 8.0 0.00 0.01 0.00 65 1015.7
20260830074016 73 203 4.0 10.0 0.00 0.01 0.00 65 1015.8
20260830073017 73 203 4.0 9.0 0.00 0.01 0.00 65 1015.9
20260830072017 73 225 2.0 6.0 0.00 0.01 0.00 66 1015.9
20260830071017 73 203 2.0 4.0 0.00 0.01 0.00 66 1015.9
20260830070017 73 203 3.0 7.0 0.00 0.01 0.00 65 1015.9
20260830065017 73 225 3.0 7.0 0.00 0.01 0.00 66 1016.0
20260830064017 73 203 3.0 7.0 0.00 0.01 0.00 66 1015.9